This demonstration page uses our WeatherBlox Daily Observations layout. Learn more.

Left ArrowRight Arrow

39.08367, -84.50855

Hourly Observations for December 31, 2020

Temp ( °F °C ) Dew Point ( °F °C ) Humidity (%) Winds ( mph kmh ) Pressure ( in mb ) Visibility ( mi km ) Precip ( " mm )
12:33 am 00:33 Cloudy with Rain 35 1.7 32 undefined 89 89 NW 7 11 30.15 1021 6 10 0.04 1.02
12:53 am 00:53 Cloudy with Rain 35 1.7 31 -0.6 85 85 VRB 7 11 30.13 1020 5 8 0.10 2.54
1:53 am 01:53 Cloudy with Rain 34 1.1 32 undefined 92 92 N N/A 30.14 1021 5 8 0.07 1.78
2:53 am 02:53 Cloudy with Light Rain 34 1.1 31 -0.6 89 89 WNW 6 9 30.16 1022 8 13 0.05 1.27
3:04 am 03:04 Cloudy with Rain 34 1.1 32 undefined 92 92 N N/A 30.18 1022 6 10 0.01 0.25
3:41 am 03:41 Cloudy with Light Rain 33 0.6 32 undefined 96 96 N N/A 30.17 1022 9 14 0.04 1.02
3:49 am 03:49 Cloudy with Light Rain 34 1 30 -1 87 87 N N/A 30.18 1022 7 11 0.05 1.27
3:53 am 03:53 Cloudy with Light Rain 33 0.6 31 -0.6 92 92 WNW 5 7 30.16 1021 7 11 0.05 1.27
4:04 am 04:04 Cloudy with Light Rain 34 1.1 31 -0.6 89 89 NW 6 9 30.19 1022 9 14 0.00 0.00
4:53 am 04:53 Cloudy 34 1.1 31 -0.6 89 89 NW 3 6 30.17 1022 9 14 0.00 0.00
5:39 am 05:39 Cloudy 33 0.6 28 -2.2 82 82 NNW 8 13 30.22 1023 10 16 N/A
5:53 am 05:53 Cloudy 33 0.6 29 -1.7 85 85 N 8 13 30.20 1023 10 16 N/A
6:53 am 06:53 Cloudy 33 0.6 29 -1.7 85 85 N 9 15 30.22 1023 9 14 N/A
7:04 am 07:04 Cloudy 33 0.6 29 -1.7 85 85 N 7 11 30.25 1024 9 14 N/A
7:53 am 07:53 Cloudy 31 -0.6 27 -2.8 85 85 N 7 11 30.26 1025 9 14 N/A
8:53 am 08:53 Cloudy with Mist and Fog 30 -1.1 26 -3.3 85 85 N 10 17 30.27 1025 6 10 N/A
9:53 am 09:53 Cloudy with Haze 30 -1.1 25 -3.9 82 82 N 7 11 30.31 1027 6 10 N/A
10:53 am 10:53 Cloudy 31 -0.6 24 -4.4 76 76 NNE 6 9 30.32 1027 8 13 N/A
11:53 am 11:53 Cloudy 31 -0.6 24 -4.4 76 76 N 8 13 30.32 1027 9 14 N/A
12:53 pm 12:53 Cloudy 32 undefined 25 -3.9 75 75 N 6 9 30.31 1027 9 14 N/A
1:53 pm 13:53 Mostly Cloudy 33 0.6 26 -3.3 75 75 N 6 9 30.31 1026 9 14 N/A
2:53 pm 14:53 Partly Cloudy 35 1.7 27 -2.8 72 72 E 7 11 30.30 1026 9 14 N/A
3:04 pm 15:04 Mostly Cloudy 35 1.7 27 -2.8 72 72 ENE 8 13 30.31 1027 9 14 N/A
3:11 pm 15:11 Partly Cloudy 34 1.1 26 -3.3 73 73 NE 6 9 30.32 1027 9 14 N/A
3:53 pm 15:53 Mostly Cloudy 35 1.7 27 -2.8 72 72 ENE 8 13 30.30 1026 9 14 N/A
4:53 pm 16:53 Cloudy 33 0.6 27 -2.8 78 78 NE 7 11 30.32 1027 10 16 N/A
5:53 pm 17:53 Cloudy 33 0.6 27 -2.8 78 78 ENE 7 11 30.34 1028 10 16 N/A
6:53 pm 18:53 Cloudy 33 0.6 27 -2.8 78 78 ENE 3 6 30.35 1028 10 16 N/A
7:53 pm 19:53 Cloudy 33 0.6 27 -2.8 78 78 E 7 11 30.35 1028 10 16 N/A
8:53 pm 20:53 Cloudy 33 0.6 27 -2.8 78 78 E 7 11 30.34 1028 10 16 N/A
9:53 pm 21:53 Cloudy 33 0.6 26 -3.3 75 75 E 10 17 30.35 1028 10 16 N/A
10:53 pm 22:53 Cloudy 33 0.6 26 -3.3 75 75 E 8 13 30.34 1028 10 16 N/A
11:53 pm 23:53 Cloudy 33 0.6 27 -2.8 78 78 ENE 7 11 30.35 1028 10 16 N/A

Powered by AerisWeather